Home   Weather   Arica   Past weeks
Flag for Chile

Past Weather in Arica, Chile — Yesterday and Last 2 Weeks

Now
68 °F

Clear.


Feels Like: 68 °F
Forecast: 78 / 65 °F
Wind: 2 mph from Northeast

Location: Arica Airport

Current Time: Mar 23, 2019 at 2:15:26 am

Latest Report: Mar 23, 2019 at 1:00 am


Visibility: 10 mi

Pressure: 29.95 "Hg

Humidity: 60%

Dew Point: 54 °F

Location of AricaLocation

Past Weather in Arica — Graph

°F

Arica Temperature Yesterday

Maximum temperature yesterday: 77 °F (at 12:00 pm)
Minimum temperature yesterday: 63 °F (at 4:00 am)
Average temperature yesterday: 69 °F

High & Low Weather Summary for the Past Weeks

 TemperatureHumidityPressure
High81 °F (Mar 10, 12:00 pm)83% (Mar 14, 12:00 am)29.98 "Hg (Mar 14, 12:00 am)
Low63 °F (Mar 21, 7:00 am)47% (Mar 20, 4:00 pm)29.77 "Hg (Mar 8, 5:00 pm)
Average71 °F64%29.89 "Hg
* Reported Mar 8 1:00 am — Mar 23 1:00 am, Arica. Weather by CustomWeather, © 2019

Note: Actual official high and low records may vary slightly from our data, if they occured in-between our weather recording intervals... More about our weather records

Advertising

Arica Weather History for the Previous 24 Hours

Scroll right to see more
 ConditionsComfort  
Time TempWeatherWind HumidityBarometerVisibility
1:00 am
Sat, Mar 23
68 °FClear.2 mph60%29.95 "Hg10 mi
12:00 am68 °FClear.2 mph64%29.98 "Hg10 mi
11:00 pm
Fri, Mar 22
70 °FClear.2 mph64%29.98 "Hg4 mi
10:00 pm70 °FClear.2 mph69%29.95 "Hg10 mi
9:00 pm70 °FClear.1 mph64%29.95 "Hg10 mi
8:00 pm70 °FPassing clouds.5 mph64%29.92 "HgN/A
7:00 pm72 °FSunny.8 mph61%29.92 "Hg10 mi
6:00 pm72 °FSunny.10 mph61%29.92 "Hg10 mi
5:00 pm73 °FPassing clouds.12 mph53%29.89 "HgN/A
4:00 pm73 °FPassing clouds.10 mph57%29.92 "HgN/A
3:00 pm73 °FPassing clouds.10 mph57%29.92 "HgN/A
2:00 pm73 °FSunny.12 mph53%29.92 "Hg10 mi
1:00 pm73 °FSunny.10 mph53%29.95 "Hg10 mi
12:00 pm77 °FPassing clouds.8 mph47%29.95 "HgN/A
11:00 am75 °FSunny.1 mph50%29.95 "Hg10 mi
10:00 am72 °FSunny.No wind57%29.95 "Hg10 mi
9:00 am66 °FSunny.5 mph64%29.95 "Hg10 mi
8:00 am63 °FSunny.6 mph68%29.92 "Hg10 mi
7:00 am63 °FClear.7 mph68%29.92 "Hg10 mi
6:00 am63 °FClear.7 mph68%29.89 "Hg10 mi
5:00 am63 °FClear.6 mph68%29.92 "Hg10 mi
4:00 am63 °FClear.6 mph68%29.92 "Hg10 mi
3:00 am64 °FClear.6 mph64%29.95 "Hg10 mi
2:00 am66 °FClear.3 mph60%29.95 "Hg10 mi
Weather by CustomWeather, © 2019

See weather overview